• In Deutschland
  • Länderverzeichnis
  • Für 7 Tage
  • Wassertemperatur
  • Satellitenkarten
  • Wetterkarte
  • Widgets
  • user-avatar
    Anmelden

    Stündliche Wetter Perth

    Heute, 19 Juni, Dienstag

    Zeit Temperatur Niederschläge Wind Luftdruck Luftfeuchtigkeit
    00:00 +12°C° 0,1 mm 3 m/S 765 mmHg 75%
    01:00 +12°C° 0,1 mm 3 m/S 765 mmHg 76%
    02:00 +12°C° 0 mm 2 m/S 765 mmHg 81%
    03:00 +12°C° 0,1 mm 2 m/S 765 mmHg 81%
    04:00 +12°C° 0,1 mm 2 m/S 765 mmHg 81%
    05:00 +12°C° 0,1 mm 2 m/S 766 mmHg 81%
    06:00 +13°C° 0,1 mm 2 m/S 766 mmHg 82%
    07:00 +13°C° 0,1 mm 2 m/S 766 mmHg 82%
    08:00 +11°C° 0 mm 3 m/S 767 mmHg 82%
    09:00 +13°C° 0,1 mm 3 m/S 767 mmHg 77%
    10:00 +16°C° 0,1 mm 3 m/S 767 mmHg 72%
    11:00 +18°C° 0,1 mm 4 m/S 767 mmHg 66%
    12:00 +19°C° 0,2 mm 4 m/S 767 mmHg 65%
    13:00 +19°C° 0,2 mm 4 m/S 766 mmHg 64%
    14:00 +19°C° 0 mm 3 m/S 766 mmHg 64%
    15:00 +19°C° 0,1 mm 3 m/S 766 mmHg 68%
    16:00 +18°C° 0,1 mm 3 m/S 766 mmHg 72%
    17:00 +17°C° 0,1 mm 3 m/S 767 mmHg 76%
    18:00 +16°C° 0,2 mm 3 m/S 767 mmHg 79%
    19:00 +16°C° 0,2 mm 2 m/S 767 mmHg 83%
    20:00 +15°C° 0,2 mm 2 m/S 768 mmHg 86%
    21:00 +15°C° 0,3 mm 2 m/S 768 mmHg 87%
    22:00 +15°C° 0,3 mm 2 m/S 768 mmHg 87%
    23:00 +15°C° 0,3 mm 2 m/S 768 mmHg 88%

    Morgen, 20 Juni, Mittwoch

    Zeit Temperatur Niederschläge Wind Luftdruck Luftfeuchtigkeit
    00:00 +15°C° 0,3 mm 2 m/S 768 mmHg 89%
    01:00 +15°C° 0,3 mm 2 m/S 768 mmHg 89%
    02:00 +15°C° 0,3 mm 2 m/S 768 mmHg 89%
    03:00 +15°C° 0,3 mm 2 m/S 768 mmHg 90%
    04:00 +15°C° 0,3 mm 2 m/S 768 mmHg 91%
    05:00 +15°C° 0,3 mm 2 m/S 768 mmHg 91%
    06:00 +15°C° 0,3 mm 1 m/S 768 mmHg 91%
    07:00 +15°C° 0,3 mm 1 m/S 768 mmHg 91%
    08:00 +15°C° 0,3 mm 1 m/S 769 mmHg 91%
    09:00 +16°C° 0,2 mm 1 m/S 769 mmHg 86%
    10:00 +18°C° 0,2 mm 1 m/S 769 mmHg 81%
    11:00 +19°C° 0,2 mm 1 m/S 769 mmHg 76%
    12:00 +20°C° 0,2 mm 1 m/S 768 mmHg 74%
    13:00 +20°C° 0,2 mm 1 m/S 768 mmHg 72%
    14:00 +19°C° 0,2 mm 2 m/S 768 mmHg 70%
    15:00 +19°C° 0 mm 2 m/S 768 mmHg 72%
    16:00 +18°C° 0 mm 2 m/S 768 mmHg 74%
    17:00 +18°C° 0 mm 2 m/S 768 mmHg 76%
    18:00 +17°C° 0,1 mm 2 m/S 768 mmHg 79%
    19:00 +16°C° 0,1 mm 2 m/S 768 mmHg 83%
    20:00 +15°C° 0,1 mm 2 m/S 769 mmHg 87%
    21:00 +15°C° 0,1 mm 2 m/S 769 mmHg 87%
    22:00 +15°C° 0,1 mm 2 m/S 769 mmHg 88%
    23:00 +14°C° 0,1 mm 2 m/S 769 mmHg 89%

    übermorgen, 21 Juni, Donnerstag

    Zeit Temperatur Niederschläge Wind Luftdruck Luftfeuchtigkeit
    00:00 +14°C° 0,1 mm 2 m/S 769 mmHg 89%
    01:00 +14°C° 0,1 mm 1 m/S 769 mmHg 89%
    02:00 +14°C° 0,1 mm 1 m/S 769 mmHg 89%
    03:00 +14°C° 0 mm 1 m/S 769 mmHg 89%
    04:00 +13°C° 0 mm 1 m/S 769 mmHg 90%
    05:00 +13°C° 0 mm 1 m/S 769 mmHg 90%
    06:00 +13°C° 0 mm 1 m/S 769 mmHg 90%
    07:00 +13°C° 0 mm 1 m/S 769 mmHg 89%
    08:00 +13°C° 0 mm 2 m/S 769 mmHg 88%
    09:00 +15°C° 0 mm 1 m/S 769 mmHg 80%
    10:00 +18°C° 0 mm 1 m/S 769 mmHg 72%
    11:00 +20°C° 0 mm 1 m/S 769 mmHg 64%
    12:00 +20°C° 0 mm 1 m/S 769 mmHg 62%
    13:00 +20°C° 0 mm 2 m/S 768 mmHg 60%
    14:00 +20°C° 0 mm 2 m/S 768 mmHg 58%
    15:00 +19°C° 0 mm 2 m/S 768 mmHg 63%
    16:00 +18°C° 0 mm 2 m/S 768 mmHg 68%
    17:00 +18°C° 0 mm 2 m/S 768 mmHg 73%
    18:00 +17°C° 0 mm 2 m/S 768 mmHg 76%
    19:00 +16°C° 0 mm 1 m/S 769 mmHg 80%
    20:00 +15°C° 0 mm 1 m/S 769 mmHg 84%
    21:00 +15°C° 0,1 mm 1 m/S 769 mmHg 84%
    22:00 +15°C° 0,1 mm 1 m/S 769 mmHg 84%
    23:00 +14°C° 0,1 mm 1 m/S 769 mmHg 84%

    22 Juni, Freitag

    Zeit Temperatur Niederschläge Wind Luftdruck Luftfeuchtigkeit
    00:00 +14°C° 0,1 mm 1 m/S 769 mmHg 85%
    01:00 +14°C° 0,1 mm 1 m/S 769 mmHg 85%
    02:00 +14°C° 0,1 mm 1 m/S 768 mmHg 85%
    03:00 +14°C° 0 mm 1 m/S 768 mmHg 86%
    04:00 +13°C° 0 mm 1 m/S 768 mmHg 87%
    05:00 +13°C° 0 mm 1 m/S 768 mmHg 88%
    06:00 +13°C° 0 mm 1 m/S 769 mmHg 86%
    07:00 +14°C° 0 mm 1 m/S 769 mmHg 85%
    08:00 +14°C° 0 mm 1 m/S 769 mmHg 84%
    09:00 +16°C° 0 mm 1 m/S 770 mmHg 77%
    10:00 +18°C° 0 mm 1 m/S 770 mmHg 71%
    11:00 +20°C° 0 mm 1 m/S 770 mmHg 64%
    12:00 +21°C° 0 mm 1 m/S 769 mmHg 63%
    13:00 +21°C° 0 mm 1 m/S 769 mmHg 61%
    14:00 +21°C° 0 mm 1 m/S 768 mmHg 60%
    15:00 +19°C° 0 mm 2 m/S 768 mmHg 64%
    16:00 +19°C° 0 mm 2 m/S 768 mmHg 68%
    17:00 +18°C° 0 mm 2 m/S 768 mmHg 72%
    18:00 +17°C° 0 mm 2 m/S 769 mmHg 76%
    19:00 +16°C° 0 mm 2 m/S 769 mmHg 80%
    20:00 +15°C° 0 mm 2 m/S 770 mmHg 84%
    21:00 +14°C° 0 mm 2 m/S 770 mmHg 85%
    22:00 +14°C° 0 mm 2 m/S 770 mmHg 85%
    23:00 +13°C° 0 mm 2 m/S 770 mmHg 86%

    23 Juni, Samstag

    Zeit Temperatur Niederschläge Wind Luftdruck Luftfeuchtigkeit
    00:00 +13°C° 0 mm 2 m/S 770 mmHg 86%
    01:00 +13°C° 0 mm 2 m/S 769 mmHg 86%
    02:00 +12°C° 0 mm 2 m/S 769 mmHg 87%
    03:00 +12°C° 0 mm 2 m/S 769 mmHg 87%
    04:00 +12°C° 0 mm 2 m/S 769 mmHg 88%
    05:00 +12°C° 0 mm 2 m/S 769 mmHg 89%
    06:00 +12°C° 0 mm 2 m/S 770 mmHg 88%
    07:00 +12°C° 0 mm 2 m/S 770 mmHg 88%
    08:00 +12°C° 0 mm 2 m/S 770 mmHg 87%
    09:00 +14°C° 0 mm 2 m/S 770 mmHg 78%
    10:00 +17°C° 0 mm 2 m/S 770 mmHg 69%
    11:00 +20°C° 0 mm 1 m/S 770 mmHg 60%
    12:00 +21°C° 0 mm 1 m/S 770 mmHg 57%
    13:00 +21°C° 0 mm 1 m/S 769 mmHg 54%
    14:00 +22°C° 0 mm 1 m/S 768 mmHg 51%
    15:00 +21°C° 0 mm 1 m/S 768 mmHg 55%
    16:00 +20°C° 0 mm 1 m/S 769 mmHg 60%
    17:00 +18°C° 0 mm 2 m/S 769 mmHg 65%
    18:00 +17°C° 0 mm 2 m/S 769 mmHg 69%
    19:00 +16°C° 0 mm 2 m/S 769 mmHg 73%
    20:00 +15°C° 0 mm 2 m/S 770 mmHg 77%
    21:00 +15°C° 0 mm 2 m/S 770 mmHg 77%
    22:00 +14°C° 0 mm 2 m/S 770 mmHg 77%
    23:00 +14°C° 0 mm 2 m/S 770 mmHg 76%

    24 Juni, Sonntag

    Zeit Temperatur Niederschläge Wind Luftdruck Luftfeuchtigkeit
    00:00 +14°C° 0 mm 2 m/S 770 mmHg 75%
    01:00 +13°C° 0 mm 3 m/S 769 mmHg 74%
    02:00 +13°C° 0 mm 3 m/S 769 mmHg 73%
    03:00 +12°C° 0 mm 3 m/S 769 mmHg 73%
    04:00 +12°C° 0 mm 3 m/S 769 mmHg 73%
    05:00 +12°C° 0 mm 3 m/S 769 mmHg 73%
    06:00 +12°C° 0 mm 3 m/S 769 mmHg 72%
    07:00 +12°C° 0 mm 3 m/S 770 mmHg 72%
    08:00 +12°C° 0 mm 3 m/S 770 mmHg 71%
    09:00 +14°C° 0 mm 3 m/S 770 mmHg 64%
    10:00 +17°C° 0 mm 3 m/S 770 mmHg 57%
    11:00 +20°C° 0 mm 3 m/S 770 mmHg 49%
    12:00 +20°C° 0 mm 3 m/S 769 mmHg 47%
    13:00 +21°C° 0 mm 3 m/S 768 mmHg 44%
    14:00 +22°C° 0 mm 3 m/S 768 mmHg 41%
    15:00 +21°C° 0 mm 2 m/S 768 mmHg 45%
    16:00 +20°C° 0 mm 2 m/S 768 mmHg 49%
    17:00 +20°C° 0 mm 1 m/S 768 mmHg 53%
    18:00 +19°C° 0 mm 1 m/S 768 mmHg 55%
    19:00 +17°C° 0 mm 2 m/S 768 mmHg 58%
    20:00 +16°C° 0 mm 2 m/S 768 mmHg 60%
    21:00 +15°C° 0 mm 2 m/S 768 mmHg 60%
    22:00 +15°C° 0 mm 2 m/S 768 mmHg 60%
    23:00 +13°C° 0 mm 3 m/S 768 mmHg 60%
    Mehr zeigen